sat.trackr.live / text

‹ back to catalog

STARLINK-34300

NORAD 64218 · 2025-117R

PAYLOAD ACTIVE UNKNOWN

§ Identity

Operator
Country
US
Launch date
2025-05-31
Launch site
AFWTR
Launch vehicle
Mass (kg)
RCS (m²)

Purposes: comms

External: N2YO · Heavens-Above · Gunter

§ Orbital elements

Epoch: 2026-09-20T14:09:04.402656Z

Period
93.85 min
Inclination
53.1551°
Eccentricity
0.0001804
Mean motion
15.34397309 rev/d
Perigee alt
461.5 km
Apogee alt
463.9 km
Semi-major
6,840.8 km
B*
2.4031e-4
RAAN
213.0438°
Arg perigee
94.3962°
Mean anomaly
265.7246°
Rev number
7,438

§ Raw data

STARLINK-343001 64218U 25117R   26263.58963429  .00007751  00000+0  24031-3 0  99942 64218  53.1551 213.0438 0001804  94.3962 265.7246 15.34397309 74388

JSON: /api/v1/satellites/64218 · /tle

For live sub-satellite position, see the globe view (requires WebGL).

§ Visibility from observer

Set your observer location to see the next 7 days of passes ≥ 10°. The values pass through the URL so the page stays shareable.

No JS? Fill the form by hand. The geolocation button needs JavaScript.